Eveleth, MN

3:48 PM CST on February 19, 2017 (GMT -0600)
Eveleth-Virginia Municipal

Weather History for KEVM - March, 2014

Change the Weather History Date:

Wednesday, March 26, 2014

  Actual Average Record
Temperature  
Mean Temperature 8 °F -  
Max Temperature 30 °F 39 °F 73 °F (2007)
Min Temperature -14 °F 19 °F -14 °F (2014)
Degree Days  
Heating Degree Days 57    
Moisture  
Dew Point 1 °F    
Average Humidity 64    
Maximum Humidity 84    
Minimum Humidity 43    
Precipitation  
Precipitation 0.00 in - - ()
Sea Level Pressure  
Sea Level Pressure 29.90 in    
Wind  
Wind Speed 4 mph (SE)    
Max Wind Speed 16 mph    
Max Gust Speed 21 mph    
Visibility 10 miles    
Events      
Averages and records for this station are not official NWS values.
T = Trace of Precipitation, MM = Missing Value Source: NWS Daily Summary

Daily Weather History Graph

Daily Weather History Graph

Search for Another Location

Airport or City:

Trip Planner

Search our weather history database for the weather conditions in past years. The results will help you decide how hot, cold, wet, or windy it might be!

Date:

Astronomy

Mar. 26, 2014 Rise Set
Actual Time 7:00 AM CDT 7:31 PM CDT
Civil Twilight 6:30 AM CDT 8:02 PM CDT
Nautical Twilight 5:53 AM CDT 8:38 PM CDT
Astronomical Twilight 5:15 AM CDT 9:16 PM CDT
Moon 4:27 AM CDT (3/26) 2:54 PM CDT (3/26)
Length of Visible Light 13h 32m
Length of Day
12h 30m
Waning Crescent, 21% of the Moon is Illuminated
Mar 26
Waning Crescent
Mar 30
New
Apr 7
First Quarter
Apr 15
Full
Apr 22
Last Quarter

Hourly Weather History & Observations

Time (CDT) Temp. Windchill Dew Point Humidity Pressure Visibility Wind Dir Wind Speed Gust Speed Precip Events Conditions
12:13 AM -0.4 °F - -7.6 °F 72% 30.06 in 10.0 mi Calm Calm - N/A   Clear
12:34 AM -2.2 °F - -7.6 °F 78% 30.06 in 10.0 mi Calm Calm - N/A   Clear
12:53 AM -5.8 °F - -9.4 °F 84% 30.06 in 10.0 mi Calm Calm - N/A   Clear
1:13 AM -7.6 °F - -13.0 °F 77% 30.06 in 10.0 mi Calm Calm - N/A   Clear
1:34 AM -7.6 °F - -13.0 °F 77% 30.06 in 10.0 mi Calm Calm - N/A   Clear
1:53 AM -7.6 °F - -13.0 °F 77% 30.06 in 10.0 mi Calm Calm - N/A   Clear
2:13 AM -7.6 °F - -14.8 °F 71% 30.06 in 10.0 mi Calm Calm - N/A   Clear
2:34 AM -7.6 °F - -13.0 °F 77% 30.06 in 10.0 mi Calm Calm - N/A   Clear
2:53 AM -9.4 °F - -14.8 °F 77% 30.06 in 10.0 mi Calm Calm - N/A   Clear
3:14 AM -9.4 °F - -14.8 °F 77% 30.05 in 10.0 mi Calm Calm - N/A   Clear
3:34 AM -9.4 °F - -16.6 °F 71% 30.05 in 10.0 mi Calm Calm - N/A   Clear
3:53 AM -13.0 °F - -18.4 °F 77% 30.05 in 10.0 mi Calm Calm - N/A   Clear
4:14 AM -11.2 °F - -16.6 °F 77% 30.05 in 10.0 mi Calm Calm - N/A   Clear
4:33 AM -13.0 °F - -16.6 °F 84% 30.05 in 10.0 mi Calm Calm - N/A   Clear
4:54 AM -13.0 °F - -18.4 °F 77% 30.03 in 10.0 mi Calm Calm - N/A   Clear
5:14 AM -13.0 °F - -18.4 °F 77% 30.03 in 10.0 mi Calm Calm - N/A   Clear
5:33 AM -13.0 °F - -18.4 °F 77% 30.05 in 10.0 mi Calm Calm - N/A   Clear
5:54 AM -13.0 °F - -20.2 °F 70% 30.03 in 10.0 mi Calm Calm - N/A   Clear
6:14 AM -14.8 °F - -20.2 °F 77% 30.03 in 10.0 mi Calm Calm - N/A   Clear
6:33 AM -13.0 °F - -18.4 °F 77% 30.03 in 10.0 mi Calm Calm - N/A   Clear
6:54 AM -13.0 °F - -18.4 °F 77% 30.03 in 10.0 mi Calm Calm - N/A   Clear
7:14 AM -13.0 °F - -18.4 °F 77% 30.03 in 10.0 mi Calm Calm - N/A   Clear
7:33 AM -13.0 °F - -18.4 °F 77% 30.03 in 10.0 mi Calm Calm - N/A   Clear
7:54 AM -11.2 °F - -16.6 °F 77% 30.03 in 10.0 mi Calm Calm - N/A   Clear
8:14 AM -9.4 °F -18.6 °F -16.6 °F 71% 30.02 in 10.0 mi ENE 3.5 mph - N/A   Clear
8:33 AM -5.8 °F - -11.2 °F 77% 30.02 in 10.0 mi Calm Calm - N/A   Clear
8:54 AM 1.4 °F - -4.0 °F 78% 30.01 in 10.0 mi Calm Calm - N/A   Scattered Clouds
9:14 AM 3.2 °F - -2.2 °F 78% 30.00 in 10.0 mi Calm Calm - N/A   Scattered Clouds
9:33 AM 5.0 °F - -0.4 °F 78% 30.00 in 10.0 mi Calm Calm - N/A   Scattered Clouds
9:54 AM 10.4 °F - 1.4 °F 67% 29.99 in 10.0 mi Calm Calm - N/A   Scattered Clouds
10:14 AM 14.0 °F - 3.2 °F 62% 29.98 in 10.0 mi Calm Calm - N/A   Mostly Cloudy
10:33 AM 19.4 °F 6.6 °F 6.8 °F 58% 29.98 in 10.0 mi SSW 12.7 mph - N/A   Scattered Clouds
10:54 AM 23.0 °F 11.7 °F 6.8 °F 50% 29.97 in 10.0 mi SSW 11.5 mph - N/A   Scattered Clouds
11:14 AM 23.0 °F 11.7 °F 8.6 °F 54% 29.97 in 10.0 mi South 11.5 mph - N/A   Overcast
11:33 AM 23.0 °F 11.1 °F 8.6 °F 54% 29.95 in 10.0 mi South 12.7 mph - N/A   Mostly Cloudy
11:54 AM 23.0 °F 12.4 °F 8.6 °F 54% 29.95 in 10.0 mi SSW 10.4 mph - N/A   Mostly Cloudy
12:14 PM 23.0 °F 11.1 °F 6.8 °F 50% 29.93 in 10.0 mi South 12.7 mph 19.6 mph N/A   Overcast
12:33 PM 24.8 °F 14.6 °F 8.6 °F 50% 29.92 in 10.0 mi South 10.4 mph - N/A   Overcast
12:54 PM 24.8 °F 12.9 °F 8.6 °F 50% 29.91 in 10.0 mi SSE 13.8 mph - N/A   Overcast
1:14 PM 24.8 °F 14.0 °F 6.8 °F 46% 29.90 in 10.0 mi South 11.5 mph - N/A   Overcast
1:33 PM 24.8 °F 13.4 °F 8.6 °F 50% 29.89 in 10.0 mi SSE 12.7 mph 17.3 mph N/A   Overcast
1:54 PM 24.8 °F 14.6 °F 8.6 °F 50% 29.87 in 10.0 mi SSE 10.4 mph - N/A   Overcast
2:13 PM 24.8 °F 13.4 °F 8.6 °F 50% 29.86 in 10.0 mi SSE 12.7 mph - N/A   Overcast
2:34 PM 26.6 °F 15.7 °F 8.6 °F 47% 29.84 in 10.0 mi SE 12.7 mph 17.3 mph N/A   Overcast
2:54 PM 26.6 °F 16.2 °F 8.6 °F 47% 29.83 in 10.0 mi ESE 11.5 mph 16.1 mph N/A   Overcast
3:13 PM 26.6 °F 18.2 °F 8.6 °F 47% 29.81 in 10.0 mi SE 8.1 mph - N/A   Overcast
3:34 PM 28.4 °F 19.7 °F 8.6 °F 43% 29.79 in 10.0 mi ESE 9.2 mph 18.4 mph N/A   Mostly Cloudy
3:54 PM 28.4 °F 17.5 °F 10.4 °F 47% 29.78 in 10.0 mi SE 13.8 mph 17.3 mph N/A   Scattered Clouds
4:14 PM 28.4 °F 18.5 °F 8.6 °F 43% 29.76 in 10.0 mi ESE 11.5 mph 17.3 mph N/A   Clear
4:33 PM 28.4 °F 17.5 °F 10.4 °F 47% 29.75 in 10.0 mi SE 13.8 mph 20.7 mph N/A   Clear
4:54 PM 30.2 °F 20.8 °F 10.4 °F 44% 29.75 in 10.0 mi SE 11.5 mph 16.1 mph N/A   Clear
5:14 PM 28.4 °F 19.1 °F 10.4 °F 47% 29.76 in 10.0 mi ESE 10.4 mph 19.6 mph N/A   Clear
5:33 PM 28.4 °F 16.6 °F 10.4 °F 47% 29.76 in 10.0 mi SSE 16.1 mph 19.6 mph N/A   Clear
5:54 PM 28.4 °F 18.0 °F 12.2 °F 51% 29.76 in 10.0 mi SSE 12.7 mph 19.6 mph N/A   Clear
6:14 PM 26.6 °F 15.7 °F 10.4 °F 51% 29.76 in 10.0 mi SE 12.7 mph 17.3 mph N/A   Clear
6:33 PM 26.6 °F 15.7 °F 10.4 °F 51% 29.75 in 10.0 mi SE 12.7 mph 18.4 mph N/A   Clear
6:54 PM 26.6 °F 17.5 °F 10.4 °F 51% 29.76 in 10.0 mi ESE 9.2 mph - N/A   Clear
7:14 PM 26.6 °F 18.2 °F 10.4 °F 51% 29.76 in 10.0 mi ESE 8.1 mph - N/A   Clear
7:33 PM 26.6 °F 19.1 °F 10.4 °F 51% 29.76 in 10.0 mi ESE 6.9 mph - N/A   Clear
7:54 PM 26.6 °F 17.5 °F 10.4 °F 51% 29.75 in 10.0 mi ESE 9.2 mph - N/A   Clear
8:14 PM 24.8 °F 20.5 °F 10.4 °F 54% 29.75 in 10.0 mi East 3.5 mph - N/A   Scattered Clouds
8:33 PM 24.8 °F 19.1 °F 12.2 °F 59% 29.75 in 10.0 mi East 4.6 mph - N/A   Mostly Cloudy
8:54 PM 24.8 °F 19.1 °F 12.2 °F 59% 29.74 in 10.0 mi East 4.6 mph - N/A   Overcast
9:14 PM 24.8 °F 17.9 °F 14.0 °F 64% 29.73 in 10.0 mi East 5.8 mph - N/A   Overcast
9:33 PM 24.8 °F 16.9 °F 14.0 °F 64% 29.72 in 10.0 mi East 6.9 mph - N/A   Overcast
9:54 PM 24.8 °F 16.9 °F 15.8 °F 69% 29.71 in 10.0 mi ESE 6.9 mph - N/A   Overcast
10:14 PM 24.8 °F 16.1 °F 17.6 °F 74% 29.70 in 10.0 mi East 8.1 mph - N/A   Overcast
10:33 PM 24.8 °F 17.9 °F 17.6 °F 74% 29.69 in 10.0 mi East 5.8 mph - N/A   Overcast
10:54 PM 24.8 °F 16.9 °F 17.6 °F 74% 29.68 in 10.0 mi East 6.9 mph - N/A   Overcast
11:14 PM 24.8 °F 19.1 °F 17.6 °F 74% 29.67 in 10.0 mi East 4.6 mph - N/A   Overcast
11:33 PM 24.8 °F 17.9 °F 17.6 °F 74% 29.66 in 10.0 mi East 5.8 mph - N/A   Overcast
11:54 PM 24.8 °F 17.9 °F 17.6 °F 74% 29.65 in 10.0 mi East 5.8 mph - N/A   Overcast